Location: Newark
(43.0000°N, 1.6781°W)
Time: 08:28:33
(UTC+00:00)

AO-7 - Pass Details

Date: 15 December 2022
Orbit: 1440 x 1459 km, 101.9° (Epoch: 28 January)

Event Time Altitude Azimuth Distance (km) Brightness Sun altitude
Rises 04:15:03 0° 22° (NNE) 4,548 ? -34.8°
Reaches altitude 10° 04:17:59 10° 28° (NNE) 3,568 ? -34.3°
Maximum altitude 04:25:58 48° 101° (ESE) 1,822 ? -32.8°
Drops below altitude 10° 04:33:55 10° 174° (S) 3,562 ? -31.4°
Sets 04:36:50 0° 180° (S) 4,540 ? -30.8°
